Location: Fermo
(43.1500°N, 13.7170°E)
Time: 14:37:09
(UTC+01:00)

ISS - Visible Passes

Search period start: 24 January 2019 00:00
Search period end: 03 February 2019 00:00
Orbit: 404 x 410 km, 51.6° (Epoch: 24 January)

Date Brightness Start Highest point End Pass type
(mag) Time Alt. Az. Time Alt. Az. Time Alt. Az.
24 Jan -2.7 17:46:27 10° SSW 17:49:24 31° SE 17:52:03 12° ENE visible
24 Jan -1.9 19:22:44 10° W 19:24:47 29° WNW 19:24:47 29° WNW visible
25 Jan -3.6 18:31:09 10° WSW 18:34:26 63° NNW 18:35:41 33° NE visible
26 Jan -3.8 17:39:45 10° SW 17:43:02 75° SSE 17:46:20 10° ENE visible
26 Jan -1.8 19:17:02 10° WNW 19:19:13 24° NW 19:19:13 24° NW visible
27 Jan -2.6 18:25:15 10° W 18:28:18 33° NNW 18:30:00 20° NNE visible
28 Jan -1.6 19:11:22 10° WNW 19:13:26 19° NNW 19:13:26 19° NNW visible
29 Jan -2.0 18:19:31 10° WNW 18:22:14 23° NNW 18:24:07 15° NNE visible
30 Jan -1.6 19:05:30 10° NW 19:07:30 18° N 19:07:30 18° N visible
31 Jan -1.8 18:13:45 10° NW 18:16:13 19° N 18:18:09 12° NE visible
31 Jan -0.5 19:50:47 10° NW 19:50:52 10° NW 19:50:52 10° NW visible
01 Feb -1.9 18:59:19 10° NW 19:01:32 20° N 19:01:32 20° N visible
02 Feb -1.9 18:07:45 10° NW 18:10:10 19° N 18:12:12 12° NE visible
02 Feb -0.9 19:44:17 10° NW 19:44:55 14° NW 19:44:55 14° NW visible
